Location: Wildlife_Club
(35.6000°N, 81.4330°W)
Time: 05:29:48
(UTC-04:00)

A-11 Canister half - Visible Passes

Search period start: 14 August 2020 00:00
Search period end: 24 August 2020 00:00
Orbit: 1513 x 1687 km, 47.2° (Epoch: 13 August)

Date Brightness Start Highest point End Pass type
(mag) Time Alt. Az. Time Alt. Az. Time Alt. Az.
14 Aug 10.4 01:55:58 10° WNW 01:59:45 24° W 01:59:45 24° W visible
14 Aug 9.9 21:21:49 10° WNW 21:31:03 44° N 21:40:33 10° ENE visible
14 Aug 9.1 23:27:23 10° NW 23:37:24 75° NNE 23:39:24 61° E visible
15 Aug 10.2 01:32:55 10° WNW 01:37:33 28° W 01:37:33 28° W visible
15 Aug 10.0 20:58:49 10° WNW 21:07:59 43° N 21:17:27 10° ENE visible
15 Aug 9.2 23:04:27 10° NW 23:14:25 72° NNE 23:17:15 52° E visible
16 Aug 10.1 01:09:54 10° WNW 01:15:25 32° W 01:15:25 32° W visible
16 Aug 10.0 20:35:49 10° WNW 20:44:56 43° N 20:54:21 10° ENE visible
16 Aug 9.2 22:41:31 10° NW 22:51:25 69° NNE 22:55:10 43° E visible
17 Aug 9.9 00:46:53 10° WNW 00:53:20 38° W 00:53:20 38° W visible
17 Aug 9.3 22:18:35 10° NW 22:28:25 66° NNE 22:33:07 36° E visible
18 Aug 9.6 00:23:52 10° WNW 00:31:18 44° WSW 00:31:18 44° WSW visible
18 Aug 9.3 21:55:39 10° NW 22:05:25 64° NNE 22:11:08 29° E visible
19 Aug 9.4 00:00:53 10° WNW 00:09:18 51° WSW 00:09:18 51° WSW visible
19 Aug 9.4 21:32:42 10° NW 21:42:25 61° NNE 21:49:11 23° E visible
19 Aug 9.3 23:37:54 10° WNW 23:47:22 56° SW 23:47:22 56° SW visible
20 Aug 9.4 21:09:46 10° NW 21:19:25 59° NNE 21:27:18 18° E visible
20 Aug 9.2 23:14:55 10° WNW 23:24:37 60° SW 23:25:28 58° SSW visible
21 Aug 11.1 01:23:32 10° W 01:23:39 10° W 01:23:39 10° W visible
21 Aug 9.5 20:46:49 10° NW 20:56:24 57° NNE 21:05:27 13° E visible
21 Aug 9.1 22:51:58 10° WNW 23:01:41 63° SW 23:03:38 55° S visible
22 Aug 10.9 01:00:01 10° W 01:01:49 13° W 01:01:49 13° W visible
22 Aug 9.5 20:23:53 10° NW 20:33:23 55° NNE 20:43:11 10° E visible
22 Aug 9.2 22:29:00 10° WNW 22:38:46 67° SW 22:41:51 48° SSE visible
23 Aug 10.8 00:36:36 10° W 00:40:02 16° WSW 00:40:02 16° WSW visible
23 Aug 9.2 22:06:04 10° WNW 22:15:50 71° SW 22:20:07 39° SSE visible
